Regional Weather Roundup
Issued by NWS

Home | Current Version | Previous Version | Text Only | Print | Product List | Glossary Off
Versions: 1 2 3 4 5 6 7 8 9 10 11 12 13 14 15 16 17 18 19 20 21 22 23 24 25 26 27 28 29 30 31 32 33 34 35 36 37 38 39 40 41 42 43 44 45 46 47 48 49 50

000
ASUS45 KABQ 171510
RWRNM
WEATHER ROUNDUP FOR NEW MEXICO
NATIONAL WEATHER SERVICE ALBUQUERQUE NM
900 AM MDT WED SEP 17 2014

NOTE: "FAIR" MEANS FEW OR NO CLOUDS BELOW 12,000 FEET AGL WITH NO
       SIGNIFICANT WEATHER OR OBSTRUCTIONS TO VISION.

      THIS PRODUCT IS RELEASED AS TWO VERSIONS.  ONE VERSION NEAR
      THE TOP OF THE HOUR CONTAINING PRELIMINARY DATA FROM ALBUQUERQUE
      AND OTHER STATIONS.  A FINAL VERSION WITH ADDITIONAL DATA IS
      ISSUED ABOUT 10 MINUTES AFTER THE HOUR.

NMZ501-503-504-510>518-171600-
NORTHWEST PLATEAU/NORTHCENTRAL MOUNTAINS

CITY           SKY/WX    TMP DP  RH WIND       PRES   REMARKS
FARMINGTON     SUNNY     65  49  56 E5        30.17S
LOS ALAMOS     CLOUDY    56  53  90 CALM      30.29S
SANTA FE       CLOUDY    59  51  75 CALM      30.24R
ANGEL FIRE     FAIR      49  44  83 CALM      30.37R

$$
NMZ402-403-502-505>509-171600-
WESTCENTRAL MOUNTAINS/SOUTHWEST MOUNTAINS

CITY           SKY/WX    TMP DP  RH WIND       PRES   REMARKS
GALLUP         CLOUDY    62  51  67 S5        30.23S
GRANTS         DRIZZLE   57  55  94 CALM      30.27R
SILVER CITY    LGT RAIN  63  61  94 NE6       30.18R

$$
NMZ407-409-411-412-171600-
SOUTHERN DESERTS

CITY           SKY/WX    TMP DP  RH WIND       PRES   REMARKS
LORDSBURG      PTSUNNY   68  63  83 SE14      30.07S
DEMING         CLOUDY    68  64  87 NE15      30.10R
LAS CRUCES     CLOUDY    68  63  85 NE5       30.12S
HOLLOMAN AFB   PTSUNNY   66  65  96 NW2       30.10S
ALAMOGORDO     CLOUDY    64  63  94 N8        30.12R
T OR C         CLOUDY    64  61  90 CALM      30.15R

$$
NMZ519>523-171600-
CENTRAL VALLEYS/CENTRAL HIGHLANDS

CITY           SKY/WX    TMP DP  RH WIND       PRES   REMARKS
ALBUQUERQUE    LGT RAIN  62  58  86 W3        30.19R
DOUBLE EAGLE   DRIZZLE   61  57  88 CALM      30.22R
MORIARTY ARPT  LGT RAIN  57  54  89 CALM      30.26R
CLINES CORNERS LGT RAIN  57  54  89 NW7       30.27R
BELEN          DRIZZLE   61  60  97 SE3       30.19R
SOCORRO        LGT RAIN  62  60  96 N3        30.17R

$$
NMZ524>526-539-540-171600-
SOUTHCENTRAL MOUNTAINS

CITY           SKY/WX    TMP DP  RH WIND       PRES   REMARKS
RUIDOSO        CLOUDY    55  55 100 CALM      30.28R

$$
NMZ527>531-171600-
NORTHEAST HIGHLANDS/NORTHEAST PLAINS

CITY           SKY/WX    TMP DP  RH WIND       PRES   REMARKS
LAS VEGAS      CLOUDY    58  47  66 CALM      30.25R
RATON          PTSUNNY   57  52  83 E5        30.19S
CLAYTON        PTSUNNY   66  57  72 SW10      30.11S

$$
NMZ532>537-171600-
EASTCENTRAL PLAINS

CITY           SKY/WX    TMP DP  RH WIND       PRES   REMARKS
TUCUMCARI      CLOUDY    70  62  76 SW13      30.10R
CANNON AFB     DRIZZLE   66  64  94 SW8       30.14S
CLOVIS AIRPORT   N/A     66  63  88 W9        30.16S

$$
NMZ028-029-538-171600-
SOUTHEAST PLAINS

CITY           SKY/WX    TMP DP  RH WIND       PRES   REMARKS
ROSWELL        CLOUDY    69  66  90 CALM      30.10S
CARLSBAD       PTSUNNY   70  70 100 CALM      30.07S FOG
HOBBS          PTSUNNY   66  66 100 SE5       30.12R


$$



USA.gov is the U.S. government's official web portal to all federal, state and local government web resources and services.